Powrót do katalogu

METEOR 2-8 DEB

AktywnyPO
NORAD 36345·DEBRIS·🇷🇺 Russia

Wystrzelony Mar 25, 1982 z Plesetsk Cosmodrome

Loading…

Następne Przeloty (najbliższe 24 godziny)

TLE

ŚwieżeSource: Space-Track

Epoka: Sep 12, 2026, 08:45 UTC

1 36345U 82025AF  26255.36511404  .00001690  00000-0  68963-3 0  9993
2 36345  82.5251 129.9808 0030247 217.5657 142.3415 14.26663892677986

Śledź METEOR 2-8 DEB w czasie rzeczywistym z AllMySat

Download on the App Store